Weather History for Orangeburg, SC

Change the Weather History Date:

Monday, October 11, 2010

  Actual Average Record
Temperature  
Mean Temperature 71 °F 67 °F  
Max Temperature 87 °F 78 °F 90 °F (1958)
Min Temperature 54 °F 56 °F 37 °F (2000)
Degree Days  
Heating Degree Days 0 2  
Month to date heating degree days 11 13  
Since 1 July heating degree days 11 17  
Cooling Degree Days 6 3  
Month to date cooling degree days 23 52  
Year to date cooling degree days 2451 2046  
Growing Degree Days 21 (Base 50)    
Moisture  
Dew Point 56 °F    
Average Humidity 80    
Maximum Humidity 97    
Minimum Humidity 29    
Precipitation  
Precipitation 0.00 in 0.12 in 2.04 in (1990)
Month to date precipitation 0.00 1.56  
Year to date precipitation 36.41 38.66  
Sea Level Pressure  
Sea Level Pressure 29.97 in    
Wind  
Wind Speed 3 mph (SW)    
Max Wind Speed 14 mph    
Max Gust Speed 17 mph    
Visibility 5 miles    
Events Fog    
T = Trace of Precipitation, MM = Missing Value Source: NWS Daily Summary

Daily Weather History Graph

Daily Weather History Graph

Search for Another Location

Airport:

Trip Planner

Search our weather history database for the weather conditions in past years. The results will help you decide how hot, cold, wet, or windy it might be!

Date:

Astronomy

Oct. 11, 2010 Rise Set
Actual Time 7:24 AM EDT 6:54 PM EDT
Civil Twilight 7:00 AM EDT 7:19 PM EDT
Nautical Twilight 6:31 AM EDT 7:48 PM EDT
Astronomical Twilight 6:02 AM EDT 8:17 PM EDT
Moon 11:44 AM EDT (10/11) 9:46 PM EDT (10/11)
Length of Visible Light 12h 19m
Length of Day
11h 29m
Waxing Crescent, 19% of the Moon is Illuminated
Oct 11
Waxing Crescent
Oct 14
First Quarter
Oct 22
Full
Oct 30
Last Quarter
Nov 6
New

Hourly Weather History & Observations

Time (EDT) Temp. Heat Index Dew Point Humidity Pressure Visibility Wind Dir Wind Speed Gust Speed Precip Events Conditions
12:53 AM 61.0 °F - 57.9 °F 90% 29.99 in 9.0 mi Calm Calm - N/A   Clear
1:53 AM 60.1 °F - 57.0 °F 90% 29.99 in 9.0 mi Calm Calm - N/A   Clear
2:53 AM 60.1 °F - 57.9 °F 93% 29.99 in 8.0 mi Calm Calm - N/A   Clear
3:53 AM 59.0 °F - 57.0 °F 93% 29.99 in 5.0 mi Calm Calm - N/A   Clear
4:17 AM 57.2 °F - 57.2 °F 100% 29.98 in 1.8 mi Calm Calm - N/A   Clear
4:24 AM 57.2 °F - 57.2 °F 100% 29.98 in 1.5 mi Calm Calm - N/A   Clear
4:32 AM 57.2 °F - 55.4 °F 94% 29.98 in 2.5 mi Calm Calm - N/A   Clear
4:46 AM 57.2 °F - 55.4 °F 94% 29.98 in 1.5 mi Calm Calm - N/A   Clear
4:53 AM 57.9 °F - 55.9 °F 93% 29.98 in 1.0 mi Calm Calm - N/A   Clear
5:10 AM 57.2 °F - 55.4 °F 94% 29.98 in 0.5 mi Calm Calm - N/A Fog Fog
5:25 AM 57.2 °F - 55.4 °F 94% 29.98 in 1.2 mi Calm Calm - N/A   Partly Cloudy
5:27 AM 57.2 °F - 55.4 °F 94% 29.98 in 2.5 mi Calm Calm - N/A   Partly Cloudy
5:34 AM 57.2 °F - 55.4 °F 94% 29.98 in 6.0 mi Calm Calm - N/A   Partly Cloudy
5:53 AM 57.0 °F - 55.0 °F 93% 29.98 in 7.0 mi Calm Calm - N/A   Clear
6:01 AM 55.4 °F - 55.4 °F 100% 29.99 in 1.5 mi Calm Calm - N/A   Clear
6:14 AM 55.4 °F - 55.4 °F 100% 29.99 in 0.2 mi Calm Calm - N/A Fog Fog
6:28 AM 55.4 °F - 55.4 °F 100% 29.99 in 0.5 mi Calm Calm - N/A Fog Fog
6:32 AM 55.4 °F - 55.4 °F 100% 29.99 in 1.2 mi Calm Calm - N/A   Partly Cloudy
6:41 AM 55.4 °F - 53.6 °F 94% 29.99 in 1.0 mi Calm Calm - N/A   Mist
6:45 AM 55.4 °F - 53.6 °F 94% 29.99 in 2.5 mi Calm Calm - N/A   Partly Cloudy
6:53 AM 55.0 °F - 54.0 °F 96% 29.99 in 4.0 mi Calm Calm - N/A   Clear
7:27 AM 55.4 °F - 53.6 °F 94% 29.99 in 2.0 mi Calm Calm - N/A   Clear
7:47 AM 55.4 °F - 53.6 °F 94% 29.99 in 0.8 mi Calm Calm - N/A   Clear
7:53 AM 55.0 °F - 54.0 °F 96% 29.99 in 0.8 mi Calm Calm - N/A   Clear
7:57 AM 55.4 °F - 53.6 °F 94% 29.99 in 1.8 mi Calm Calm - N/A   Clear
8:04 AM 55.4 °F - 53.6 °F 94% 29.99 in 2.5 mi Calm Calm - N/A   Partly Cloudy
8:16 AM 57.2 °F - 55.4 °F 94% 30.00 in 3.0 mi Calm Calm - N/A   Clear
8:53 AM 61.0 °F - 59.0 °F 93% 30.01 in 4.0 mi Calm Calm - N/A   Clear
9:53 AM 68.0 °F - 63.0 °F 84% 30.01 in 8.0 mi Calm Calm - N/A   Clear
10:53 AM 75.9 °F - 63.0 °F 64% 30.01 in 10.0 mi Calm Calm - N/A   Clear
11:53 AM 82.0 °F 82.4 °F 60.1 °F 47% 29.99 in 10.0 mi Variable 4.6 mph - N/A   Clear
12:53 PM 84.9 °F 83.3 °F 54.0 °F 34% 29.98 in 10.0 mi Variable 5.8 mph - N/A   Clear
1:53 PM 87.1 °F - 52.0 °F 30% 29.94 in 10.0 mi West 11.5 mph 17.3 mph N/A   Clear
2:53 PM 86.0 °F - 52.0 °F 31% 29.92 in 10.0 mi WNW 9.2 mph - N/A   Clear
3:53 PM 86.0 °F - 51.1 °F 30% 29.91 in 10.0 mi West 6.9 mph - N/A   Partly Cloudy
4:53 PM 86.0 °F - 51.1 °F 30% 29.90 in 10.0 mi WSW 5.8 mph - N/A   Clear
5:53 PM 82.9 °F 81.8 °F 53.1 °F 36% 29.91 in 10.0 mi South 4.6 mph - N/A   Clear
6:53 PM 75.9 °F - 57.0 °F 52% 29.91 in 10.0 mi SSW 3.5 mph - N/A   Clear
7:53 PM 72.0 °F - 57.0 °F 59% 29.92 in 10.0 mi SSW 3.5 mph - N/A   Clear
8:53 PM 71.1 °F - 57.9 °F 63% 29.94 in 10.0 mi SSW 4.6 mph - N/A   Scattered Clouds
9:53 PM 69.1 °F - 61.0 °F 75% 29.95 in 10.0 mi Calm Calm - N/A   Partly Cloudy
10:53 PM 66.9 °F - 62.1 °F 84% 29.96 in 10.0 mi SSW 3.5 mph - N/A   Mostly Cloudy
11:53 PM 66.9 °F - 61.0 °F 81% 29.95 in 10.0 mi SSW 4.6 mph - N/A   Partly Cloudy